Location: ?????????
(54.7630°N, 39.4991°E)
Time: 07:07:46
(UTC+00:00)

Cosmos 1782 Rocket - Pass Details

Date: 14 April 2026
Orbit: 600 x 624 km, 82.5° (Epoch: 12 May)

Event Time Altitude Azimuth Distance (km) Brightness Sun altitude
Exits shadow 19:01:53 36° 99° (E) 966 4.2 -19.2°
Maximum altitude 19:02:06 36° 92° (E) 962 4.2 -19.2°
Drops below altitude 10° 19:06:03 10° 26° (NNE) 1,958 6.5 -19.6°
Sets 19:08:24 0° 18° (NNE) 2,866 7.5 -19.8°
